CZ-3B DEB, 42471

Orbit data source: Space-Track

CZ-3B DEB, 42471 is space debris in HEO originally from a launch on Mon, 19 Dec 2011 UTC launched from the Xichang Space Center, China (XSC). Debris objects in space refer to the collection of defunct objects orbiting the Earth. Examples of debris include non-operational satellites, rocket bodies, and fragments generated from explosions, collisions, or faulty payload assembly.

Loading next visibility...
Identifier
42471, 2011-077AL
Orbit
HEO
Country
Flag of CNCN / PRC
Related business
Manufacturer
CALT
Mission
Spacecraft
Bus & Motor
Unknown
Mass
Unknown
Launch date (UTC)
2011-12-19 (14 years ago)
Launch vehicle
Unknown
Launch site
Xichang Space Center, China (XSC)
Object type
Payload
Rocket body
Debris
Shape & HBR
Unknown shape, 0.2 m
Radar Cross Section
Medium (>0.1 m² and <1 m²)

Expand to show TLE details & history
Last TLE update: 6 days ago

TLE from 6 days ago
0 CZ-3B DEB
1 42471U 11077AL  25301.53804855 -.00000262  00000-0  59829-3 0  9990
2 42471  26.4644  12.4080 7460656  18.5539 358.2452  1.89239736 30309
Epoch: 2025-10-28T12:54Z
TLE epoch observation values (Epoch: 2025-10-28T12:54:47.394Z)
Latitude
-0.00025°
Longitude
141.59456°
Altitude
758.42 km
Speed
9.862 km/s
True Right ascension
00h 49m 39s
True Declination
0° 00' 01"
Sunlit
Object was in full shadow at epoch
Visualization orbit readout
Latitude
Unknown
Longitude
Unknown
Altitude
Unknown
Speed
Unknown
Apparent Right ascension
Unknown
Apparent Declination
Unknown
Sunlit
N/A
Visualization observer readout
Local Sidereal Time
06:06:20
Azimuth
Unknown
Elevation
Unknown
Doppler factor
Unknown
Orbital elements
Apogee altitude
41,836.709 km
Perigee altitude
633.861 km
Semi-major axis
27,613.422 km
Eccentricity
0.74607
Inclination
26.4644°
RAAN
12.408°
Arg. of periapsis
18.5539°
True anomaly
342.13031°
Mean anomaly
358.2452°
Eccentric anomaly
353.13772°
Mean motion
0.473 °/min
Orbital period
761.1 mins
BSTAR
0.00059829
Loading maneuver chart data...
Computing Atmospheric mass density...
Loading historical data...
Loading historical data...
Loading historical data...
Loading historical data...
Loading historical data...
Loading historical data...
Loading historical data...

Documentation

Showing up to 5 results
|